| time (UTC) | temp C | wind direction | speed KPH | gust KPH | rain 1hr cm | rain 24hr cm | rain mn cm | humidity % | barometer mb |
| 20260506201532 | 6 | 307 | 0.0 | 0.0 | 0.10 | 1.45 | 1.19 | 99 | 1003.8 |
| 20260506200032 | 6 | 291 | 0.0 | 0.0 | 0.13 | 1.45 | 1.19 | 99 | 1003.8 |
| 20260506194536 | 6 | 350 | 0.0 | 0.0 | 0.10 | 1.50 | 1.14 | 99 | 1003.8 |
| 20260506193030 | 6 | 350 | 0.0 | 0.0 | 0.13 | 1.45 | 1.12 | 99 | 1003.8 |
| 20260506191528 | 6 | 350 | 0.0 | 0.0 | 0.13 | 1.42 | 1.09 | 98 | 1003.9 |
| 20260506190027 | 6 | 5 | 0.0 | 0.0 | 0.13 | 1.42 | 1.07 | 98 | 1003.8 |
| 20260506184529 | 6 | 338 | 0.0 | 0.0 | 0.15 | 1.40 | 1.04 | 99 | 1003.7 |
| 20260506183027 | 6 | 338 | 0.0 | 0.0 | 0.13 | 1.35 | 0.99 | 99 | 1003.7 |
| 20260506181523 | 6 | 338 | 0.0 | 0.0 | 0.15 | 1.32 | 0.97 | 98 | 1003.8 |
| 20260506180022 | 6 | 5 | 0.0 | 0.0 | 0.15 | 1.30 | 0.94 | 99 | 1003.9 |
| 20260506174521 | 6 | 5 | 0.0 | 0.0 | 0.15 | 1.24 | 0.89 | 98 | 1004.1 |
| 20260506173023 | 6 | 11 | 0.0 | 0.0 | 0.15 | 1.22 | 0.86 | 98 | 1004.1 |
| 20260506171525 | 7 | 335 | 0.0 | 0.0 | 0.13 | 1.17 | 0.81 | 98 | 1004.0 |
| 20260506170020 | 7 | 169 | 0.0 | 0.0 | 0.15 | 1.14 | 0.79 | 98 | 1003.9 |
| 20260506164520 | 7 | 111 | 0.0 | 0.0 | 0.13 | 1.09 | 0.71 | 98 | 1004.0 |
| 20260506163017 | 6 | 110 | 0.0 | 0.0 | 0.13 | 1.07 | 0.71 | 98 | 1003.9 |
| 20260506161512 | 7 | 46 | 0.0 | 0.0 | 0.13 | 1.04 | 0.69 | 98 | 1004.1 |
| 20260506160009 | 7 | 46 | 0.0 | 0.0 | 0.10 | 0.99 | 0.64 | 98 | 1004.4 |
| 20260506154514 | 7 | 288 | 0.0 | 0.0 | 0.13 | 0.97 | 0.61 | 99 | 1004.0 |
| 20260506153003 | 7 | 286 | 0.0 | 0.0 | 0.10 | 0.94 | 0.58 | 98 | 1004.3 |
| 20260506151600 | 7 | 313 | 0.0 | 0.0 | 0.13 | 0.91 | 0.56 | 98 | 1004.3 |
| 20260506150104 | 7 | 313 | 0.0 | 0.0 | 0.13 | 0.89 | 0.53 | 98 | 1004.4 |
| 20260506144556 | 7 | 313 | 0.0 | 0.0 | 0.10 | 0.89 | 0.48 | 98 | 1004.5 |
| 20260506143055 | 8 | 313 | 0.0 | 0.0 | 0.13 | 0.89 | 0.48 | 98 | 1004.7 |
| 20260506141555 | 8 | 313 | 0.0 | 0.0 | 0.10 | 0.84 | 0.43 | 98 | 1004.7 |
| 20260506140055 | 8 | 49 | 0.0 | 0.0 | 0.13 | 0.81 | 0.41 | 98 | 1004.4 |
| 20260506134554 | 8 | 57 | 0.0 | 0.0 | 0.13 | 0.79 | 0.38 | 98 | 1004.5 |
| 20260506133101 | 8 | 57 | 0.0 | 4.8 | 0.13 | 0.76 | 0.36 | 98 | 1004.7 |
| 20260506131559 | 8 | 92 | 0.0 | 0.0 | 0.13 | 0.71 | 0.33 | 98 | 1004.8 |
| 20260506130054 | 8 | 167 | 0.0 | 0.0 | 0.10 | 0.69 | 0.28 | 98 | 1005.0 |
| 20260506124549 | 8 | 167 | 0.0 | 0.0 | 0.08 | 0.66 | 0.25 | 98 | 1005.1 |
| 20260506123048 | 8 | 167 | 0.0 | 0.0 | 0.08 | 0.64 | 0.23 | 98 | 1005.4 |
| 20260506121546 | 8 | 167 | 0.0 | 0.0 | 0.05 | 0.61 | 0.20 | 98 | 1005.1 |
| 20260506120046 | 8 | 167 | 0.0 | 0.0 | 0.03 | 0.58 | 0.18 | 98 | 1005.2 |
| 20260506114544 | 8 | 167 | 0.0 | 0.0 | 0.05 | 0.58 | 0.18 | 98 | 1005.3 |
| 20260506113043 | 9 | 166 | 0.0 | 0.0 | 0.03 | 0.56 | 0.15 | 98 | 1005.2 |
| 20260506111540 | 9 | 72 | 0.0 | 0.0 | 0.03 | 0.56 | 0.15 | 98 | 1005.3 |
| 20260506110040 | 9 | 115 | 0.0 | 3.2 | 0.03 | 0.56 | 0.15 | 98 | 1005.0 |
| 20260506104546 | 9 | 123 | 0.0 | 0.0 | 0.00 | 0.53 | 0.13 | 98 | 1005.1 |
| 20260506103040 | 9 | 212 | 0.0 | 0.0 | 0.00 | 0.53 | 0.13 | 98 | 1004.9 |
| 20260506101537 | 9 | 95 | 0.0 | 0.0 | 0.00 | 0.53 | 0.13 | 98 | 1004.9 |
| 20260506100039 | 9 | 95 | 0.0 | 0.0 | 0.00 | 0.53 | 0.13 | 98 | 1005.3 |
| 20260506094546 | 9 | 100 | 0.0 | 0.0 | 0.00 | 0.53 | 0.13 | 98 | 1005.0 |
| 20260506093038 | 9 | 61 | 0.0 | 0.0 | 0.00 | 0.53 | 0.13 | 97 | 1005.5 |
| 20260506091533 | 9 | 61 | 0.0 | 0.0 | 0.00 | 0.53 | 0.13 | 97 | 1005.4 |
| 20260506090031 | 9 | 61 | 0.0 | 0.0 | 0.00 | 0.53 | 0.13 | 97 | 1005.4 |
| 20260506084531 | 10 | 60 | 0.0 | 0.0 | 0.00 | 0.53 | 0.13 | 97 | 1005.5 |
| 20260506083028 | 10 | 340 | 0.0 | 0.0 | 0.00 | 0.53 | 0.13 | 97 | 1005.8 |
| 20260506081532 | 10 | 340 | 0.0 | 0.0 | 0.00 | 0.53 | 0.13 | 97 | 1005.8 |
| 20260506073025 | 10 | 46 | 0.0 | 0.0 | 0.03 | 0.53 | 0.13 | 97 | 1005.4 |
| 20260506071524 | 10 | 284 | 0.0 | 0.0 | 0.05 | 0.53 | 0.13 | 97 | 1005.1 |
| 20260506061517 | 10 | 44 | 0.0 | 0.0 | 0.00 | 0.48 | 0.08 | 96 | 1005.6 |
| 20260506044506 | 11 | 218 | 0.0 | 0.0 | 0.05 | 0.43 | 0.03 | 95 | 1005.8 |
| 20260506043005 | 11 | 111 | 0.0 | 0.0 | 0.03 | 0.41 | 0.00 | 94 | 1005.7 |
| 20260506041509 | 12 | 107 | 0.0 | 0.0 | 0.05 | 0.41 | 0.00 | 92 | 1005.6 |
| 20260506040100 | 12 | 39 | 0.0 | 0.0 | 0.08 | 0.41 | 0.00 | 91 | 1005.5 |
| 20260506034556 | 13 | 289 | 0.0 | 1.6 | 0.05 | 0.38 | 0.38 | 91 | 1005.8 |
| 20260506033055 | 13 | 254 | 0.0 | 0.0 | 0.05 | 0.38 | 0.38 | 90 | 1005.0 |
| 20260506031557 | 13 | 251 | 0.0 | 1.6 | 0.03 | 0.36 | 0.36 | 88 | 1004.8 |
| 20260506030048 | 13 | 229 | 0.0 | 0.0 | 0.00 | 0.33 | 0.33 | 86 | 1004.7 |
| 20260506024556 | 14 | 240 | 0.0 | 3.2 | 0.00 | 0.33 | 0.33 | 83 | 1004.7 |
| 20260506023045 | 15 | 220 | 0.0 | 3.2 | 0.00 | 0.33 | 0.33 | 82 | 1004.6 |
| 20260506021544 | 15 | 225 | 0.0 | 0.0 | 0.00 | 0.33 | 0.33 | 76 | 1004.7 |
| 20260506020044 | 15 | 226 | 0.0 | 0.0 | 0.00 | 0.33 | 0.33 | 75 | 1004.6 |
| 20260506014544 | 15 | 252 | 0.0 | 1.6 | 0.00 | 0.33 | 0.33 | 75 | 1004.6 |
| 20260506013043 | 15 | 217 | 0.0 | 4.8 | 0.00 | 0.33 | 0.33 | 75 | 1003.9 |
| 20260506011543 | 15 | 159 | 0.0 | 4.8 | 0.00 | 0.33 | 0.33 | 76 | 1003.9 |
| 20260506010043 | 15 | 188 | 0.0 | 0.0 | 0.00 | 0.33 | 0.33 | 77 | 1003.8 |
| 20260506004541 | 15 | 208 | 0.0 | 9.7 | 0.00 | 0.33 | 0.33 | 77 | 1003.7 |
| 20260506003041 | 14 | 186 | 1.6 | 11.3 | 0.00 | 0.33 | 0.33 | 77 | 1003.6 |
| 20260506001542 | 14 | 198 | 3.2 | 9.7 | 0.00 | 0.33 | 0.33 | 79 | 1003.6 |
| 20260506000040 | 14 | 223 | 0.0 | 4.8 | 0.00 | 0.33 | 0.33 | 82 | 1003.7 |
| 20260505234546 | 15 | 240 | 1.6 | 4.8 | 0.00 | 0.33 | 0.33 | 80 | 1003.7 |
| 20260505233039 | 15 | 292 | 0.0 | 6.4 | 0.00 | 0.33 | 0.33 | 78 | 1003.6 |
| 20260505231550 | 15 | 226 | 0.0 | 6.4 | 0.00 | 0.33 | 0.33 | 78 | 1003.2 |
| 20260505230051 | 15 | 303 | 0.0 | 9.7 | 0.00 | 0.33 | 0.33 | 79 | 1003.1 |
| 20260505224538 | 15 | 280 | 0.0 | 12.9 | 0.00 | 0.33 | 0.33 | 78 | 1003.0 |
| 20260505223037 | 15 | 240 | 0.0 | 11.3 | 0.00 | 0.33 | 0.33 | 79 | 1002.8 |
| 20260505221537 | 15 | 286 | 0.0 | 12.9 | 0.03 | 0.33 | 0.33 | 80 | 1002.5 |
| 20260505220036 | 15 | 249 | 1.6 | 19.3 | 0.05 | 0.33 | 0.33 | 81 | 1003.0 |
| 20260505214536 | 15 | 239 | 0.0 | 9.7 | 0.08 | 0.33 | 0.33 | 78 | 1003.1 |
| 20260505213042 | 16 | 290 | 0.0 | 12.9 | 0.10 | 0.33 | 0.33 | 74 | 1002.2 |
| 20260505211536 | 15 | 219 | 3.2 | 16.1 | 0.13 | 0.30 | 0.30 | 77 | 1002.0 |
| 20260505210036 | 15 | 208 | 0.0 | 9.7 | 0.15 | 0.28 | 0.28 | 81 | 1001.9 |
| 20260505204533 | 16 | 156 | 1.6 | 17.7 | 0.18 | 0.25 | 0.25 | 82 | 1002.0 |
| 20260505203032 | 15 | 202 | 3.2 | 14.5 | 0.18 | 0.23 | 0.23 | 89 | 1001.9 |